Wind_Speed
15 16 19 25 27 29 29 29 28 26 26 22 20 19 18 17 17 18 19 19 14 15
20 23 24 27 29 28 30 30 29 28 28 24 21 20 18 18 17 15 14 14 15 18
23 26 26 25 27 28 29 32 32 30 24 20 17 18 20 19 15 15 14 16 18 20
22 20 22 26 27 29 31 33 23 18 19 16 20 22 21 20 19 18 20 20 18 17
17 20 22 24 24 32 35 28 25 30 27 8 16 19 20 20 20 18 20 19 23 25
18 21 26 28 28 25 28 29 32 32 17 13 16 20 19 19 19 21 22 25 28 31
25 26 26 26 28 28 26 26 33 35 21 17 14 18 18 18 20 21 25 29 31 30
26 27 28 28 28 29 31 29 30 22 9 11 14 17 15 17 22 26 31 30 27 26
23 26 30 30 34 35 25 26 18 12 12 12 14 13 18 24 28 29 29 28 27 26
26 29 30 33 35 28 22 19 19 16 14 12 10 19 22 26 27 26 26 28 28 28
28 31 35 33 28 24 20 17 17 10 7 10 16 21 24 24 25 25 26 27 27 25
29 34 30 26 23 18 11 8 5 7 10 13 19 23 23 24 27 27 27 24 20 19
30 25 23 20 18 14 8 6 7 9 12 18 21 20 21 23 26 26 24 19 18 15
24 23 20 16 15 10 5 6 7 12 18 19 18 18 20 23 23 23 21 19 17 15
Wind_Direction
315 325 328 332 330 330 332 326 322 319 318 317 313 316 314 312 313 314 314 313 306 305
328 323 324 328 334 327 328 323 311 312 312 315 311 312 312 314 314 310 308 304 306 301
327 327 326 329 329 327 326 320 311 309 306 309 303 305 307 311 309 299 298 302 303 300
328 329 330 327 329 327 322 314 300 296 292 300 305 309 306 311 315 311 312 310 300 294
325 329 330 327 325 320 317 301 285 286 291 299 286 297 306 315 319 320 316 305 304 304
312 320 323 321 323 331 327 309 296 301 283 293 294 293 308 315 318 314 307 304 303 306
330 330 326 326 333 337 326 307 303 299 293 277 287 300 309 313 308 301 303 303 305 308
329 327 328 329 333 330 321 314 308 292 290 277 287 300 292 301 304 306 305 307 309 308
326 329 329 328 329 327 315 314 305 282 262 267 306 279 302 309 309 307 309 312 312 310
330 327 325 327 328 329 319 307 293 260 259 322 287 305 309 312 310 310 313 311 310 309
325 325 325 327 326 323 326 315 298 291 302 294 304 312 316 314 316 318 316 314 313 313
322 323 324 326 326 325 316 308 298 307 303 302 315 320 323 324 325 327 326 328 332 329
323 325 324 324 327 324 300 305 311 304 309 316 321 325 329 331 333 332 334 339 339 338
324 324 323 317 318 321 294 306 306 307 312 319 325 331 335 338 341 343 341 340 340 339
Height
1542 1541 1539 1537 1534 1530 1527 1524 1521 1519 1515 1511 1507 1505 1502 1500 1498 1496 1495 1492 1489 1487
1540 1538 1536 1533 1530 1527 1523 1518 1515 1512 1509 1506 1504 1502 1500 1497 1494 1491 1489 1487 1485 1484
1537 1535 1532 1529 1525 1521 1518 1514 1511 1508 1505 1501 1498 1497 1497 1493 1490 1488 1485 1482 1481 1479
1533 1530 1527 1524 1521 1518 1515 1512 1507 1503 1500 1497 1497 1495 1491 1490 1485 1484 1481 1479 1477 1475
1528 1526 1523 1520 1517 1514 1509 1505 1502 1497 1493 1490 1488 1489 1487 1484 1480 1478 1477 1476 1473 1470
1525 1522 1518 1514 1511 1508 1504 1500 1497 1493 1490 1486 1485 1485 1483 1479 1477 1474 1473 1470 1466 1462
1521 1517 1513 1510 1505 1501 1498 1495 1490 1486 1483 1481 1482 1482 1478 1475 1473 1470 1468 1464 1459 1454
1517 1514 1509 1505 1501 1497 1493 1488 1484 1480 1479 1479 1479 1478 1475 1471 1468 1465 1461 1457 1452 1448
1512 1508 1504 1500 1495 1490 1486 1482 1479 1476 1475 1475 1475 1473 1471 1467 1463 1459 1454 1450 1445 1441
1507 1503 1498 1494 1488 1483 1480 1477 1474 1472 1471 1472 1471 1469 1466 1462 1457 1453 1448 1444 1438 1434
1502 1498 1493 1487 1483 1478 1474 1472 1471 1470 1470 1469 1468 1465 1461 1456 1452 1448 1443 1438 1432 1427
1498 1493 1487 1482 1478 1475 1472 1470 1469 1469 1468 1467 1464 1460 1455 1450 1446 1441 1436 1431 1427 1422
1492 1488 1483 1479 1476 1473 1471 1470 1468 1467 1465 1463 1460 1456 1451 1447 1441 1436 1431 1428 1424 1420
1487 1483 1479 1476 1473 1470 1469 1468 1466 1465 1463 1459 1456 1453 1448 1444 1438 1433 1428 1425 1421 1418